Paris, TX

1:41 PM CDT on April 24, 2017 (GMT -0500)
Cox

Weather History for KPRX - January, 2014

Change the Weather History Date:

Thursday, January 2, 2014

  Actual Average Record
Temperature  
Mean Temperature 30 °F -  
Max Temperature 39 °F 51 °F 73 °F (2004)
Min Temperature 21 °F 34 °F 17 °F (2001)
Degree Days  
Heating Degree Days 35    
Moisture  
Dew Point 17 °F    
Average Humidity 61    
Maximum Humidity 80    
Minimum Humidity 39    
Precipitation  
Precipitation 0.00 in - - ()
Sea Level Pressure  
Sea Level Pressure 30.35 in    
Wind  
Wind Speed 17 mph (NNW)    
Max Wind Speed 29 mph    
Max Gust Speed 40 mph    
Visibility 10 miles    
Events      
Averages and records for this station are not official NWS values.
T = Trace of Precipitation, MM = Missing Value Source: NWS Daily Summary

Daily Weather History Graph

Daily Weather History Graph

Search for Another Location

Airport or City:

Trip Planner

Search our weather history database for the weather conditions in past years. The results will help you decide how hot, cold, wet, or windy it might be!

Date:

Astronomy

Jan. 02, 2014 Rise Set
Actual Time 7:26 AM CST 5:25 PM CST
Civil Twilight 6:59 AM CST 5:52 PM CST
Nautical Twilight 6:28 AM CST 6:23 PM CST
Astronomical Twilight 5:57 AM CST 6:54 PM CST
Moon 8:14 AM CST (1/2) 7:17 PM CST (1/2)
Length of Visible Light 10h 53m
Length of Day
9h 58m
Waxing Crescent, 3% of the Moon is Illuminated
Jan 2
Waxing Crescent
Jan 7
First Quarter
Jan 15
Full
Jan 23
Last Quarter
Jan 30
New

Hourly Weather History & Observations

Time (CST) Temp. Windchill Dew Point Humidity Pressure Visibility Wind Dir Wind Speed Gust Speed Precip Events Conditions
12:15 AM 35.6 °F 25.2 °F 24.8 °F 65% 30.10 in 10.0 mi NW 18.4 mph 24.2 mph N/A   Clear
12:35 AM 33.8 °F 21.6 °F 23.0 °F 65% 30.11 in 10.0 mi NW 23.0 mph 28.8 mph N/A   Clear
12:55 AM 33.8 °F 21.3 °F 21.2 °F 60% 30.13 in 10.0 mi NW 24.2 mph 32.2 mph N/A   Clear
1:15 AM 32.0 °F 19.2 °F 21.2 °F 64% 30.15 in 10.0 mi NNW 23.0 mph 40.3 mph N/A   Clear
1:35 AM 30.2 °F 18.1 °F 21.2 °F 69% 30.16 in 10.0 mi NW 18.4 mph 23.0 mph N/A   Clear
1:55 AM 30.2 °F 17.1 °F 21.2 °F 69% 30.17 in 10.0 mi NW 21.9 mph 27.6 mph N/A   Scattered Clouds
2:15 AM 30.2 °F 18.1 °F 19.4 °F 64% 30.19 in 10.0 mi NNW 18.4 mph 29.9 mph N/A   Partly Cloudy
2:35 AM 28.4 °F 14.7 °F 19.4 °F 69% 30.20 in 10.0 mi NNW 21.9 mph 29.9 mph N/A   Clear
2:55 AM 28.4 °F 14.7 °F 19.4 °F 69% 30.20 in 10.0 mi NNW 21.9 mph 26.5 mph N/A   Clear
3:15 AM 28.4 °F 14.1 °F 19.4 °F 69% 30.20 in 10.0 mi NNW 24.2 mph 31.1 mph N/A   Clear
3:35 AM 26.6 °F 11.4 °F 19.4 °F 74% 30.23 in 10.0 mi NW 25.3 mph 33.4 mph N/A   Clear
3:55 AM 26.6 °F 10.6 °F 17.6 °F 69% 30.24 in 10.0 mi NNW 28.8 mph 33.4 mph N/A   Clear
4:15 AM 26.6 °F 12.0 °F 17.6 °F 69% 30.24 in 10.0 mi NNW 23.0 mph 29.9 mph N/A   Clear
4:35 AM 26.6 °F 13.4 °F 17.6 °F 69% 30.26 in 10.0 mi NW 18.4 mph - N/A   Clear
4:55 AM 24.8 °F 10.0 °F 17.6 °F 74% 30.26 in 10.0 mi NNW 21.9 mph 26.5 mph N/A   Clear
5:15 AM 24.8 °F 11.5 °F 15.8 °F 69% 30.27 in 10.0 mi NNW 17.3 mph 27.6 mph N/A   Clear
5:35 AM 24.8 °F 12.9 °F 15.8 °F 69% 30.29 in 10.0 mi NNW 13.8 mph 26.5 mph N/A   Clear
5:55 AM 23.0 °F 8.7 °F 15.8 °F 74% 30.29 in 10.0 mi NNW 18.4 mph 26.5 mph N/A   Clear
6:15 AM 23.0 °F 8.3 °F 15.8 °F 74% 30.30 in 10.0 mi NNW 19.6 mph 24.2 mph N/A   Clear
6:35 AM 23.0 °F 9.6 °F 15.8 °F 74% 30.30 in 10.0 mi NNW 16.1 mph 25.3 mph N/A   Clear
6:55 AM 21.2 °F 6.0 °F 15.8 °F 80% 30.31 in 10.0 mi NNW 19.6 mph 25.3 mph N/A   Clear
7:15 AM 21.2 °F 6.8 °F 15.8 °F 80% 30.33 in 10.0 mi NNW 17.3 mph 25.3 mph N/A   Clear
7:35 AM 21.2 °F 5.6 °F 14.0 °F 74% 30.33 in 10.0 mi NNW 20.7 mph 27.6 mph N/A   Clear
7:55 AM 21.2 °F 7.3 °F 14.0 °F 74% 30.35 in 10.0 mi NNW 16.1 mph 25.3 mph N/A   Clear
8:15 AM 21.2 °F 7.8 °F 15.8 °F 80% 30.35 in 10.0 mi NNW 15.0 mph 26.5 mph N/A   Clear
8:35 AM 21.2 °F 6.4 °F 14.0 °F 74% 30.35 in 10.0 mi NNW 18.4 mph 23.0 mph N/A   Clear
8:55 AM 23.0 °F 8.0 °F 15.8 °F 74% 30.37 in 10.0 mi NNW 20.7 mph - N/A   Clear
9:15 AM 24.8 °F 11.9 °F 15.8 °F 69% 30.38 in 10.0 mi NNW 16.1 mph 26.5 mph N/A   Clear
9:35 AM 24.8 °F 11.5 °F 15.8 °F 69% 30.38 in 10.0 mi NNW 17.3 mph 24.2 mph N/A   Clear
9:55 AM 26.6 °F 13.8 °F 15.8 °F 64% 30.39 in 10.0 mi NNW 17.3 mph 27.6 mph N/A   Clear
10:15 AM 26.6 °F 14.7 °F 15.8 °F 64% 30.41 in 10.0 mi NNW 15.0 mph - N/A   Clear
10:35 AM 28.4 °F 15.8 °F 15.8 °F 59% 30.41 in 10.0 mi NNW 18.4 mph 24.2 mph N/A   Clear
10:55 AM 30.2 °F 18.1 °F 15.8 °F 55% 30.41 in 10.0 mi NNW 18.4 mph 24.2 mph N/A   Clear
11:15 AM 30.2 °F 19.8 °F 15.8 °F 55% 30.41 in 10.0 mi NW 13.8 mph - N/A   Clear
11:35 AM 32.0 °F 22.5 °F 17.6 °F 55% 30.39 in 10.0 mi NNW 12.7 mph - N/A   Clear
11:55 AM 33.8 °F 24.8 °F 17.6 °F 52% 30.39 in 10.0 mi NNW 12.7 mph - N/A   Clear
12:15 PM 33.8 °F 25.3 °F 15.8 °F 48% 30.38 in 10.0 mi WNW 11.5 mph - N/A   Clear
12:35 PM 33.8 °F 24.3 °F 17.6 °F 52% 30.38 in 10.0 mi NNW 13.8 mph 19.6 mph N/A   Clear
12:55 PM 35.6 °F 26.6 °F 17.6 °F 48% 30.38 in 10.0 mi NNW 13.8 mph 23.0 mph N/A   Clear
1:15 PM 35.6 °F 26.2 °F 17.6 °F 48% 30.38 in 10.0 mi NW 15.0 mph 20.7 mph N/A   Clear
1:35 PM 37.4 °F 28.9 °F 17.6 °F 45% 30.38 in 10.0 mi NW 13.8 mph - N/A   Clear
1:55 PM 37.4 °F 29.3 °F 17.6 °F 45% 30.38 in 10.0 mi NNW 12.7 mph 21.9 mph N/A   Clear
2:15 PM 37.4 °F 28.9 °F 17.6 °F 45% 30.38 in 10.0 mi NW 13.8 mph - N/A   Clear
2:35 PM 39.2 °F 30.5 °F 17.6 °F 42% 30.38 in 10.0 mi NNW 16.1 mph 19.6 mph N/A   Clear
2:55 PM 39.2 °F 32.5 °F 17.6 °F 42% 30.39 in 10.0 mi NW 10.4 mph 19.6 mph N/A   Clear
3:15 PM 39.2 °F 31.2 °F 17.6 °F 42% 30.39 in 10.0 mi NW 13.8 mph - N/A   Clear
3:35 PM 39.2 °F 32.0 °F 15.8 °F 39% 30.39 in 10.0 mi NW 11.5 mph - N/A   Clear
3:55 PM 39.2 °F 30.5 °F 15.8 °F 39% 30.39 in 10.0 mi NW 16.1 mph 20.7 mph N/A   Clear
4:15 PM 39.2 °F 32.0 °F 17.6 °F 42% 30.39 in 10.0 mi North 11.5 mph - N/A   Clear
4:35 PM 39.2 °F 33.6 °F 17.6 °F 42% 30.39 in 10.0 mi NNW 8.1 mph - N/A   Clear
4:55 PM 37.4 °F 30.3 °F 17.6 °F 45% 30.39 in 10.0 mi NNW 10.4 mph - N/A   Clear
5:15 PM 37.4 °F 31.4 °F 17.6 °F 45% 30.40 in 10.0 mi NNW 8.1 mph - N/A   Clear
5:35 PM 33.8 °F 27.7 °F 17.6 °F 52% 30.40 in 10.0 mi NNW 6.9 mph - N/A   Clear
5:55 PM 33.8 °F 29.6 °F 17.6 °F 52% 30.40 in 10.0 mi NNW 4.6 mph - N/A   Clear
6:15 PM 32.0 °F 26.4 °F 17.6 °F 55% 30.40 in 10.0 mi North 5.8 mph - N/A   Clear
6:35 PM 33.8 °F 28.6 °F 17.6 °F 52% 30.40 in 10.0 mi NNW 5.8 mph - N/A   Clear
6:55 PM 30.2 °F 22.6 °F 17.6 °F 60% 30.40 in 10.0 mi NNW 8.1 mph - N/A   Clear
7:15 PM 30.2 °F 23.4 °F 17.6 °F 60% 30.41 in 10.0 mi NNW 6.9 mph - N/A   Clear
7:35 PM 30.2 °F 24.3 °F 19.4 °F 64% 30.42 in 10.0 mi WNW 5.8 mph - N/A   Clear
7:55 PM 30.2 °F 24.3 °F 17.6 °F 60% 30.42 in 10.0 mi NNW 5.8 mph - N/A   Clear
8:15 PM 28.4 °F 21.2 °F 17.6 °F 64% 30.43 in 10.0 mi North 6.9 mph - N/A   Clear
8:35 PM 30.2 °F 23.4 °F 17.6 °F 60% 30.43 in 10.0 mi NNW 6.9 mph - N/A   Clear
8:55 PM 28.4 °F 22.2 °F 17.6 °F 64% 30.44 in 10.0 mi NNW 5.8 mph - N/A   Clear
9:15 PM 28.4 °F 22.2 °F 17.6 °F 64% 30.44 in 10.0 mi North 5.8 mph - N/A   Clear
9:35 PM 28.4 °F 22.2 °F 17.6 °F 64% 30.44 in 10.0 mi North 5.8 mph - N/A   Clear
9:55 PM 26.6 °F 22.6 °F 17.6 °F 69% 30.44 in 10.0 mi North 3.5 mph - N/A   Clear
10:15 PM 28.4 °F 24.6 °F 17.6 °F 64% 30.44 in 10.0 mi North 3.5 mph - N/A   Clear
10:35 PM 28.4 °F - 17.6 °F 64% 30.45 in 10.0 mi North - - N/A   Clear
10:55 PM 26.6 °F 22.6 °F 15.8 °F 64% 30.45 in 10.0 mi North 3.5 mph - N/A   Clear
11:15 PM 28.4 °F 23.3 °F 17.6 °F 64% 30.44 in 10.0 mi North 4.6 mph - N/A   Clear
11:35 PM 26.6 °F - 15.8 °F 64% 30.44 in 10.0 mi North - - N/A   Clear
11:55 PM 26.6 °F 19.1 °F 17.6 °F 69% 30.44 in 10.0 mi NNE 6.9 mph - N/A   Clear